Maricopa West
DateTemperatureDew Point
07/12 - 09:45 PM81.5°67.1°
07/12 - 09:30 PM81.6°70.8°
07/12 - 09:15 PM82.3°71.3°
07/12 - 09:00 PM83.3°72.3°
07/12 - 08:45 PM84.2°72.9°
07/12 - 08:30 PM85.3°74.4°
07/12 - 08:15 PM87.0°76.3°
07/12 - 08:00 PM88.7°78.1°
07/12 - 07:45 PM89.8°81.0°
07/12 - 07:30 PM90.1°82.6°
07/12 - 07:15 PM89.9°81.3°
07/12 - 07:00 PM90.1°79.5°
07/12 - 06:45 PM90.5°80.0°
07/12 - 06:30 PM90.8°78.9°
07/12 - 06:15 PM91.6°78.5°
07/12 - 06:00 PM93.0°79.5°
07/12 - 05:45 PM94.2°80.6°
07/12 - 05:30 PM94.4°81.5°
07/12 - 05:15 PM94.1°81.9°
07/12 - 05:00 PM94.1°78.6°
07/12 - 04:45 PM95.7°72.7°
07/12 - 04:30 PM96.7°72.1°
07/12 - 04:15 PM98.0°70.7°
07/12 - 04:00 PM100.7°73.4°
07/12 - 03:45 PM102.3°73.9°
07/12 - 03:30 PM102.8°77.6°
07/12 - 03:15 PM101.2°77.6°
07/12 - 03:00 PM99.5°76.9°
07/12 - 02:45 PM98.2°75.7°
07/12 - 02:30 PM100.0°74.9°
07/12 - 02:15 PM100.8°74.2°
07/12 - 02:00 PM99.8°75.9°
07/12 - 01:45 PM96.9°74.5°
07/12 - 01:30 PM94.7°75.9°
07/12 - 01:15 PM94.5°75.0°
07/12 - 01:00 PM93.8°75.9°
07/12 - 12:45 PM93.4°76.4°
07/12 - 12:30 PM94.6°73.7°
07/12 - 12:15 PM95.1°74.9°
07/12 - 12:00 PM96.5°75.5°
07/12 - 11:45 AM97.8°73.1°
07/12 - 11:30 AM97.5°72.7°
07/12 - 11:15 AM96.3°71.6°
07/12 - 11:00 AM94.6°75.2°
07/12 - 10:45 AM93.5°73.5°
07/12 - 10:30 AM92.0°74.9°
07/12 - 10:15 AM90.3°74.1°
07/12 - 10:00 AM90.3°73.0°
07/12 - 09:45 AM89.4°70.8°
07/12 - 09:30 AM86.4°69.0°
07/12 - 09:15 AM83.0°70.2°
07/12 - 09:00 AM80.7°72.4°
07/12 - 08:45 AM79.8°72.2°
07/12 - 08:30 AM78.9°70.2°
07/12 - 08:15 AM77.4°69.8°
07/12 - 08:00 AM75.6°69.8°
07/12 - 07:45 AM73.9°68.9°
07/12 - 07:30 AM72.1°67.9°
07/12 - 07:15 AM70.8°66.5°
07/12 - 07:00 AM69.5°64.9°
07/12 - 06:45 AM68.5°64.3°
07/12 - 06:30 AM67.9°63.9°
07/12 - 06:15 AM67.8°63.7°
07/12 - 06:00 AM67.7°63.5°
07/12 - 05:45 AM67.9°63.3°
07/12 - 05:30 AM68.1°63.0°
07/12 - 05:15 AM68.3°62.5°
07/12 - 05:00 AM68.7°62.8°
07/12 - 04:45 AM69.0°62.9°
07/12 - 04:30 AM69.2°62.6°
07/12 - 04:15 AM69.8°62.9°
07/12 - 04:00 AM70.5°62.3°
07/12 - 03:45 AM71.0°62.5°
07/12 - 03:30 AM71.8°62.7°
07/12 - 03:15 AM72.6°62.8°
07/12 - 03:00 AM73.2°63.3°
07/12 - 02:45 AM73.8°63.7°
07/12 - 02:30 AM74.1°63.6°
07/12 - 02:15 AM74.6°63.8°
07/12 - 02:00 AM74.7°62.7°
07/12 - 01:45 AM74.9°63.3°
07/12 - 01:30 AM75.3°64.5°
07/12 - 01:15 AM75.5°63.8°
07/12 - 01:00 AM76.2°65.1°
07/12 - 12:45 AM76.7°64.8°
07/12 - 12:30 AM77.2°64.6°
07/12 - 12:15 AM77.9°64.0°
07/12 - 12:00 AM78.9°63.2°
07/11 - 11:45 PM79.3°62.5°
07/11 - 11:30 PM79.2°62.5°
07/11 - 11:15 PM79.5°63.3°
07/11 - 11:00 PM80.3°65.1°
07/11 - 10:45 PM81.2°66.1°
07/11 - 10:30 PM81.7°66.1°
07/11 - 10:15 PM81.9°66.5°
07/11 - 10:00 PM82.1°66.6°
07/11 - 09:45 PM82.7°70.2°
07/11 - 09:30 PM83.4°70.3°
07/11 - 09:15 PM84.3°70.6°
07/11 - 09:00 PM85.2°70.6°
07/11 - 08:45 PM86.1°69.8°
07/11 - 08:30 PM87.6°69.6°
07/11 - 08:15 PM88.5°67.5°
07/11 - 08:00 PM90.3°68.6°
07/11 - 07:45 PM92.0°70.4°
07/11 - 07:30 PM93.5°70.5°
07/11 - 07:15 PM94.9°71.1°
07/11 - 07:00 PM96.2°72.2°
07/11 - 06:45 PM97.6°73.1°
07/11 - 06:30 PM99.3°77.5°
07/11 - 06:15 PM100.4°76.1°
07/11 - 06:00 PM101.8°77.3°
07/11 - 05:45 PM102.9°76.4°
07/11 - 05:30 PM103.7°73.9°
07/11 - 05:15 PM104.4°72.1°
07/11 - 05:00 PM105.2°70.6°
07/11 - 04:45 PM105.9°72.3°
07/11 - 04:30 PM107.1°70.1°
07/11 - 04:15 PM108.5°72.9°
07/11 - 04:00 PM108.7°73.8°
07/11 - 03:45 PM109.4°72.6°
07/11 - 03:30 PM109.0°71.8°
07/11 - 03:15 PM109.1°71.3°
07/11 - 03:00 PM108.2°69.3°
07/11 - 02:45 PM107.5°68.0°
07/11 - 02:30 PM106.9°69.3°
07/11 - 02:15 PM106.6°69.5°
07/11 - 02:00 PM106.6°71.1°
07/11 - 01:45 PM106.1°72.0°
07/11 - 01:30 PM105.7°72.3°
07/11 - 01:15 PM105.6°72.9°
07/11 - 01:00 PM105.0°72.0°
07/11 - 12:45 PM104.9°72.8°
07/11 - 12:30 PM103.8°71.9°
07/11 - 12:15 PM102.8°71.5°
07/11 - 12:00 PM102.5°70.8°
07/11 - 11:45 AM102.4°70.3°
07/11 - 11:30 AM101.3°69.8°
07/11 - 11:15 AM99.9°67.9°
07/11 - 11:00 AM99.3°69.8°
07/11 - 10:45 AM99.0°70.4°
07/11 - 10:30 AM97.8°70.8°
07/11 - 10:15 AM96.4°68.7°
07/11 - 10:00 AM95.5°70.3°
07/11 - 09:45 AM94.4°69.5°
07/11 - 09:30 AM92.9°68.5°
07/11 - 09:15 AM91.2°69.7°
07/11 - 09:00 AM89.7°69.6°
07/11 - 08:45 AM88.3°69.5°
07/11 - 08:30 AM86.5°69.3°
07/11 - 08:15 AM85.1°70.3°
07/11 - 08:00 AM83.5°68.8°
07/11 - 07:45 AM81.2°69.2°
07/11 - 07:30 AM78.5°67.0°
07/11 - 07:15 AM75.1°65.9°
07/11 - 07:00 AM72.5°65.5°
07/11 - 06:45 AM70.8°63.7°
07/11 - 06:30 AM69.7°63.4°
07/11 - 06:15 AM69.2°63.4°
07/11 - 06:00 AM69.0°62.6°
07/11 - 05:45 AM68.9°62.8°
07/11 - 05:30 AM68.9°63.0°
07/11 - 05:15 AM68.8°62.7°
07/11 - 05:00 AM69.0°63.2°
07/11 - 04:45 AM69.0°63.0°
07/11 - 04:30 AM68.8°63.0°
07/11 - 04:15 AM68.8°63.5°
07/11 - 04:00 AM68.9°64.0°
07/11 - 03:45 AM69.0°64.1°
07/11 - 03:30 AM69.1°64.1°
07/11 - 03:15 AM69.1°64.1°
07/11 - 03:00 AM69.2°64.2°
07/11 - 02:45 AM69.4°63.8°
07/11 - 02:30 AM69.6°62.9°
07/11 - 02:15 AM70.3°62.6°
07/11 - 02:00 AM71.0°62.6°
07/11 - 01:45 AM71.8°62.6°
07/11 - 01:30 AM72.4°62.6°
07/11 - 01:15 AM73.1°64.1°
07/11 - 01:00 AM73.3°64.0°
07/11 - 12:45 AM73.3°64.0°
07/11 - 12:30 AM74.1°65.8°
07/11 - 12:15 AM74.7°66.1°
07/11 - 12:00 AM75.5°66.0°
07/10 - 11:45 PM76.0°65.4°
07/10 - 11:30 PM76.6°64.6°
07/10 - 11:15 PM77.2°64.9°
07/10 - 11:00 PM77.7°64.9°
07/10 - 10:45 PM78.5°65.3°
07/10 - 10:30 PM79.3°66.0°